Kyiv, Ukraine

7:50 AM EEST on August 27, 2016 (GMT +0300)
Kyiv

Weather History for 33345 - September, 2013

Change the Weather History Date:

Sunday, September 22, 2013

  Actual Average Record
Temperature  
Mean Temperature 56 °F -  
Max Temperature 63 °F - - ()
Min Temperature 50 °F - - ()
Degree Days  
Heating Degree Days 8    
Growing Degree Days 6 (Base 50)    
Moisture  
Dew Point 50 °F    
Average Humidity 83    
Maximum Humidity 100    
Minimum Humidity 44    
Precipitation  
Precipitation 0.02 in 0.05 in - ()
Sea Level Pressure  
Sea Level Pressure 29.94 in    
Wind  
Wind Speed 8 mph ()    
Max Wind Speed 18 mph    
Max Gust Speed -    
Visibility 7.1 miles    
Events Rain    
T = Trace of Precipitation, MM = Missing Value Source: Averaged Metar Reports

Daily Weather History Graph

Daily Weather History Graph

Search for Another Location

Airport or City:

Trip Planner

Search our weather history database for the weather conditions in past years. The results will help you decide how hot, cold, wet, or windy it might be!

Date:

Astronomy

Sep. 22, 2013 Rise Set
Actual Time 6:44 AM EEST 6:56 PM EEST
Civil Twilight 6:11 AM EEST 7:28 PM EEST
Nautical Twilight 5:33 AM EEST 8:07 PM EEST
Astronomical Twilight 4:53 AM EEST 8:47 PM EEST
Moon 8:08 PM EEST (9/22) 10:06 AM EEST (9/22)
Length of Visible Light 13h 17m
Length of Day
12h 11m
Waning Gibbous, 90% of the Moon is Illuminated
Sep 22
Waning Gibbous
Sep 27
Last Quarter
Oct 5
New
Oct 12
First Quarter
Oct 19
Full

Hourly Weather History & Observations

Time (EEST) Temp. Dew Point Humidity Pressure Visibility Wind Dir Wind Speed Gust Speed Precip Events Conditions
12:00 AM 53.6 °F 51.8 °F 94% 29.89 in 6.2 mi NW 6.7 mph - N/A   Mostly Cloudy
12:30 AM 53.6 °F 51.8 °F 94% 29.89 in 6.2 mi NW 8.9 mph - N/A   Mostly Cloudy
1:00 AM 53.6 °F 51.8 °F 94% 29.89 in - NW 8.9 mph - N/A   Clear
1:30 AM 51.8 °F 51.8 °F 100% 29.89 in 6.2 mi WNW 6.7 mph - N/A   Mostly Cloudy
2:00 AM 51.8 °F 51.8 °F 100% 29.92 in 6.2 mi WNW 8.9 mph - N/A   Mostly Cloudy
2:30 AM 51.8 °F 50.0 °F 94% 29.92 in 6.2 mi NW 8.9 mph - N/A   Mostly Cloudy
3:00 AM 52 °F 49 °F 86% 29.92 in 12 mi NNW 6.7 mph - -   Scattered Clouds
3:00 AM 51.8 °F 50.0 °F 94% 29.92 in - NW 8.9 mph - N/A   Clear
3:30 AM 51.8 °F 48.2 °F 88% 29.92 in - NW 8.9 mph - N/A   Clear
4:00 AM 50.0 °F 48.2 °F 94% 29.92 in - NW 8.9 mph - N/A   Clear
4:30 AM 50.0 °F 48.2 °F 94% 29.92 in - WNW 8.9 mph - N/A   Clear
5:00 AM 50.0 °F 48.2 °F 94% 29.92 in - NW 8.9 mph - N/A   Clear
5:30 AM 50.0 °F 48.2 °F 94% 29.92 in - NW 8.9 mph - N/A   Clear
6:00 AM 51 °F 48 °F 84% 29.94 in 12 mi NW 6.7 mph - -   Mostly Cloudy
6:00 AM 50.0 °F 48.2 °F 94% 29.92 in - WNW 8.9 mph - N/A   Clear
6:30 AM 50.0 °F 50.0 °F 100% 29.95 in - WNW 6.7 mph - N/A   Clear
7:00 AM 51.8 °F 50.0 °F 94% 29.95 in 6.2 mi WNW 8.9 mph - N/A   Overcast
7:30 AM 51.8 °F 51.8 °F 100% 29.95 in 5.0 mi WNW 11.2 mph - N/A   Overcast
8:00 AM 51.8 °F 51.8 °F 100% 29.95 in 4.3 mi NW 11.2 mph - N/A   Overcast
8:30 AM 53.6 °F 51.8 °F 94% 29.95 in 5.0 mi NW 11.2 mph - N/A   Overcast
9:00 AM 54 °F 52 °F 89% 29.96 in 6 mi North 6.7 mph - -   Overcast
9:00 AM 53.6 °F 53.6 °F 100% 29.95 in 6.2 mi NW 8.9 mph - N/A Rain Light Rain
9:30 AM 55.4 °F 53.6 °F 94% 29.95 in 6.2 mi NW 8.9 mph - N/A   Overcast
10:00 AM 55.4 °F 53.6 °F 94% 29.95 in 6.2 mi NW 8.9 mph - N/A   Overcast
10:30 AM 55.4 °F 53.6 °F 94% 29.98 in 6.2 mi NW 8.9 mph - N/A Rain Light Rain
11:00 AM 55.4 °F 53.6 °F 94% 29.98 in 5.6 mi NW 11.2 mph - N/A Rain Light Rain Showers
11:30 AM 57.2 °F 55.4 °F 94% 29.95 in 6.2 mi NW 11.2 mph - N/A   Mostly Cloudy
12:00 PM 57 °F 54 °F 88% 29.97 in 12 mi NNW 6.7 mph - - Rain Light Rain Showers
12:00 PM 57.2 °F 55.4 °F 94% 29.95 in 6.2 mi NW 8.9 mph - N/A Rain Light Rain Showers
12:30 PM 59.0 °F 55.4 °F 88% 29.95 in 6.2 mi NW 8.9 mph - N/A   Mostly Cloudy
1:00 PM 59.0 °F 55.4 °F 88% 29.95 in 6.2 mi NW 11.2 mph - N/A   Mostly Cloudy
1:30 PM 59.0 °F 55.4 °F 88% 29.95 in 6.2 mi NW 11.2 mph - N/A Rain Light Rain Showers
2:00 PM 59.0 °F 53.6 °F 82% 29.95 in 6.2 mi NW 13.4 mph - N/A   Mostly Cloudy
2:30 PM 60.8 °F 53.6 °F 77% 29.95 in 6.2 mi NW 11.2 mph - N/A   Mostly Cloudy
3:00 PM 61 °F 51 °F 60% 29.95 in 12 mi NW 8.9 mph - -   Partly Cloudy
3:00 PM 60.8 °F 51.8 °F 72% 29.95 in 6.2 mi NW 13.4 mph - N/A   Mostly Cloudy
3:30 PM 62.6 °F 50.0 °F 63% 29.95 in 6.2 mi NW 13.4 mph - N/A   Mostly Cloudy
4:00 PM 62.6 °F 50.0 °F 63% 29.95 in 6.2 mi WNW 17.9 mph - N/A   Mostly Cloudy
4:30 PM 60.8 °F 46.4 °F 59% 29.95 in 6.2 mi NW 17.9 mph - N/A   Mostly Cloudy
5:00 PM 59.0 °F 46.4 °F 63% 29.95 in - WNW 15.7 mph - N/A   Clear
5:30 PM 60.8 °F 44.6 °F 55% 29.95 in - NW 13.4 mph - N/A   Clear
6:00 PM 60 °F 44 °F 44% 29.95 in 12 mi NW 6.7 mph - -   Mostly Cloudy
6:00 PM 59.0 °F 44.6 °F 59% 29.95 in - WNW 13.4 mph - N/A   Clear
6:30 PM 59.0 °F 42.8 °F 55% 29.95 in - WNW 13.4 mph - N/A   Clear
7:00 PM 55.4 °F 42.8 °F 63% 29.95 in - WNW 11.2 mph - N/A   Clear
7:30 PM 53.6 °F 44.6 °F 72% 29.95 in - WNW 8.9 mph - N/A   Clear
8:00 PM 51.8 °F 44.6 °F 76% 29.95 in 6.2 mi WNW 8.9 mph - N/A   Partly Cloudy
8:30 PM 51.8 °F 44.6 °F 76% 29.95 in - West 6.7 mph - N/A   Clear
9:00 PM 53 °F 44 °F 64% 29.96 in 12 mi West 4.5 mph - -   Scattered Clouds
9:00 PM 50.0 °F 44.6 °F 82% 29.95 in - West 6.7 mph - N/A   Clear
9:30 PM 50.0 °F 44.6 °F 82% 29.95 in - West 6.7 mph - N/A   Clear
10:00 PM 50.0 °F 44.6 °F 82% 29.95 in - West 8.9 mph - N/A   Clear
10:30 PM 50.0 °F 46.4 °F 87% 29.92 in - West 8.9 mph - N/A   Clear
11:00 PM 51.8 °F 46.4 °F 82% 29.92 in - West 8.9 mph - N/A   Clear
11:30 PM 51.8 °F 46.4 °F 82% 29.89 in - West 8.9 mph - N/A   Clear